TimeCST,TemperatureF,Dew PointF,Humidity,Sea Level PressureIn,VisibilityMPH,Wind Direction,Wind SpeedMPH,Gust SpeedMPH,PrecipitationIn,Events,Conditions,WindDirDegrees,DateUTC
12:14 AM,15.8,10.4,79,29.83,10.0,SSE,11.5,-,N/A,,Overcast,150,2014-02-01 06:14:00
12:34 AM,15.8,10.4,79,29.83,10.0,SSE,10.4,-,N/A,,Overcast,150,2014-02-01 06:34:00
12:54 AM,15.8,10.4,79,29.83,10.0,SSE,10.4,-,N/A,,Overcast,150,2014-02-01 06:54:00
1:14 AM,15.8,10.4,79,29.83,10.0,SSE,6.9,-,N/A,,Overcast,150,2014-02-01 07:14:00
1:34 AM,15.8,10.4,79,29.83,10.0,SSE,6.9,-,N/A,,Scattered Clouds,160,2014-02-01 07:34:00
1:54 AM,15.8,10.4,79,29.82,10.0,SSE,6.9,-,N/A,,Scattered Clouds,160,2014-02-01 07:54:00
2:14 AM,14.0,8.6,79,29.82,10.0,South,8.1,-,N/A,,Scattered Clouds,170,2014-02-01 08:14:00
2:34 AM,12.2,8.6,85,29.83,10.0,South,6.9,-,N/A,,Clear,170,2014-02-01 08:34:00
2:55 AM,12.2,8.6,85,29.83,10.0,South,4.6,-,N/A,,Clear,190,2014-02-01 08:55:00
3:14 AM,10.4,5.0,79,29.84,10.0,Calm,Calm,-,N/A,,Clear,0,2014-02-01 09:14:00
3:34 AM,10.4,6.8,85,29.85,10.0,WSW,3.5,-,N/A,,Clear,240,2014-02-01 09:34:00
3:54 AM,14.0,10.4,86,29.85,10.0,WSW,5.8,-,N/A,,Clear,250,2014-02-01 09:54:00
4:14 AM,12.2,8.6,85,29.86,10.0,West,8.1,-,N/A,,Clear,270,2014-02-01 10:14:00
4:34 AM,12.2,8.6,85,29.87,10.0,WNW,8.1,-,N/A,,Clear,290,2014-02-01 10:34:00
4:54 AM,12.2,8.6,85,29.88,10.0,WNW,12.7,-,N/A,,Clear,290,2014-02-01 10:54:00
5:14 AM,12.2,8.6,85,29.90,10.0,WNW,12.7,-,N/A,,Mostly Cloudy,290,2014-02-01 11:14:00
5:34 AM,12.2,8.6,85,29.91,10.0,WNW,15.0,-,N/A,,Mostly Cloudy,290,2014-02-01 11:34:00
5:54 AM,12.2,6.8,79,29.91,10.0,WNW,16.1,21.9,N/A,,Scattered Clouds,300,2014-02-01 11:54:00
6:14 AM,10.4,6.8,85,29.93,10.0,WNW,11.5,-,N/A,,Mostly Cloudy,290,2014-02-01 12:14:00
6:34 AM,12.2,6.8,79,29.93,10.0,WNW,18.4,26.5,N/A,,Overcast,290,2014-02-01 12:34:00
6:54 AM,12.2,6.8,79,29.95,10.0,WNW,17.3,23.0,N/A,,Overcast,300,2014-02-01 12:54:00
7:14 AM,12.2,6.8,79,29.96,10.0,WNW,17.3,25.3,N/A,,Overcast,300,2014-02-01 13:14:00
7:35 AM,10.4,6.8,85,29.97,10.0,WNW,17.3,24.2,N/A,,Mostly Cloudy,300,2014-02-01 13:35:00
7:54 AM,10.4,5.0,79,29.98,10.0,WNW,15.0,19.6,N/A,,Clear,290,2014-02-01 13:54:00
8:14 AM,8.6,3.2,79,29.99,10.0,WNW,13.8,-,N/A,,Clear,300,2014-02-01 14:14:00
8:34 AM,10.4,5.0,79,30.00,10.0,WNW,12.7,-,N/A,,Clear,300,2014-02-01 14:34:00
8:54 AM,10.4,6.8,85,30.01,10.0,NW,16.1,19.6,N/A,,Mostly Cloudy,310,2014-02-01 14:54:00
9:14 AM,10.4,5.0,79,30.03,10.0,NW,18.4,25.3,N/A,,Overcast,320,2014-02-01 15:14:00
9:34 AM,10.4,5.0,79,30.04,10.0,NNW,17.3,25.3,N/A,,Overcast,330,2014-02-01 15:34:00
9:54 AM,10.4,5.0,79,30.05,10.0,NNW,20.7,25.3,N/A,Snow,Light Snow,330,2014-02-01 15:54:00
10:14 AM,8.6,3.2,79,30.07,10.0,NNW,16.1,25.3,N/A,Snow,Light Snow,330,2014-02-01 16:14:00
10:34 AM,8.6,3.2,79,30.08,10.0,NNW,17.3,21.9,N/A,,Overcast,330,2014-02-01 16:34:00
10:54 AM,8.6,3.2,79,30.09,10.0,NNW,20.7,24.2,N/A,,Mostly Cloudy,330,2014-02-01 16:54:00
11:14 AM,8.6,3.2,79,30.10,10.0,NNW,17.3,26.5,N/A,,Clear,330,2014-02-01 17:14:00
11:35 AM,10.4,1.4,67,30.11,10.0,NNW,18.4,21.9,N/A,,Scattered Clouds,330,2014-02-01 17:35:00
11:54 AM,8.6,3.2,79,30.11,10.0,NNW,16.1,-,N/A,,Mostly Cloudy,330,2014-02-01 17:54:00
12:14 PM,8.6,3.2,79,30.12,10.0,NNW,13.8,-,N/A,,Overcast,340,2014-02-01 18:14:00
12:34 PM,8.6,1.4,73,30.12,10.0,NNW,12.7,-,N/A,,Overcast,340,2014-02-01 18:34:00
12:54 PM,8.6,3.2,79,30.13,10.0,NNW,16.1,-,N/A,,Scattered Clouds,340,2014-02-01 18:54:00
1:14 PM,8.6,3.2,79,30.13,10.0,NNW,13.8,17.3,N/A,,Scattered Clouds,330,2014-02-01 19:14:00
1:34 PM,8.6,1.4,73,30.14,10.0,NW,12.7,17.3,N/A,,Mostly Cloudy,310,2014-02-01 19:34:00
1:54 PM,8.6,-0.4,67,30.14,10.0,WNW,16.1,21.9,N/A,,Scattered Clouds,300,2014-02-01 19:54:00
2:14 PM,8.6,-0.4,67,30.14,10.0,NW,13.8,-,N/A,,Clear,320,2014-02-01 20:14:00
2:34 PM,8.6,-0.4,67,30.15,10.0,NW,16.1,19.6,N/A,,Clear,310,2014-02-01 20:34:00
2:54 PM,8.6,1.4,73,30.15,10.0,NW,13.8,19.6,N/A,,Clear,320,2014-02-01 20:54:00
3:14 PM,8.6,-0.4,67,30.15,10.0,NW,13.8,20.7,N/A,,Clear,320,2014-02-01 21:14:00
3:34 PM,8.6,-0.4,67,30.16,10.0,NW,12.7,-,N/A,,Clear,320,2014-02-01 21:34:00
3:54 PM,8.6,-0.4,67,30.17,10.0,NW,12.7,-,N/A,,Clear,310,2014-02-01 21:54:00
4:14 PM,8.6,-0.4,67,30.18,10.0,NW,11.5,-,N/A,,Clear,310,2014-02-01 22:14:00
4:34 PM,8.6,-0.4,67,30.18,10.0,NW,11.5,-,N/A,,Clear,310,2014-02-01 22:34:00
4:54 PM,8.6,-0.4,67,30.18,10.0,NW,9.2,-,N/A,,Clear,310,2014-02-01 22:54:00
5:14 PM,6.8,-0.4,72,30.19,10.0,NW,5.8,-,N/A,,Clear,310,2014-02-01 23:14:00
5:34 PM,6.8,-0.4,72,30.20,10.0,NW,4.6,-,N/A,,Clear,310,2014-02-01 23:34:00
5:54 PM,5.0,-2.2,72,30.20,10.0,Calm,Calm,-,N/A,,Clear,0,2014-02-01 23:54:00
6:14 PM,3.2,-2.2,78,30.21,10.0,WNW,4.6,-,N/A,,Clear,290,2014-02-02 00:14:00
6:34 PM,3.2,-2.2,78,30.21,10.0,West,5.8,-,N/A,,Clear,280,2014-02-02 00:34:00
9:42 PM,1.4,-2.2,85,30.23,10.0,West,4.6,-,N/A,,Clear,260,2014-02-02 03:42:00
10:12 PM,-0.4,-4.0,85,30.24,10.0,West,3.5,-,N/A,,Clear,270,2014-02-02 04:12:00
10:14 PM,-0.4,-4.0,85,30.23,10.0,West,3.5,-,N/A,,Clear,260,2014-02-02 04:14:00
10:41 PM,1.4,-2.2,85,30.23,10.0,SW,5.8,-,N/A,,Clear,230,2014-02-02 04:41:00
10:54 PM,-0.4,-4.0,85,30.23,10.0,SW,4.6,-,N/A,,Scattered Clouds,230,2014-02-02 04:54:00
11:14 PM,-0.4,-4.0,85,30.23,10.0,SSW,5.8,-,N/A,,Overcast,210,2014-02-02 05:14:00
11:34 PM,1.4,-2.2,85,30.23,10.0,SW,5.8,-,N/A,,Overcast,230,2014-02-02 05:34:00
11:54 PM,1.4,-4.0,78,30.23,10.0,SSW,3.5,-,N/A,,Overcast,210,2014-02-02 05:54:00